Orbital Elements at Epoch 2459000.5 (2020-May-31.0) TDB
Reference: JPL 27 (heliocentric ecliptic J2000)
Element | Value | Uncertainty (1-sigma) | Units |
e | .1879352517249168 | 3.1858e-08 | |
a | 2.459949321533574 | 9.8145e-09 | au |
q | 1.997638126560623 | 7.8785e-08 | au |
i | 7.351369386379674 | 4.4379e-06 | deg |
node | 45.07682249226379 | 2.4603e-05 | deg |
peri | 113.70943388 | 2.7309e-05 | deg |
M | 331.1695398292246 | 1.1794e-05 | deg |
tp | 2459113.359141047469 (2020-Sep-20.85914105) | 4.639e-05 | TDB |
period | 1409.248778424757 3.86 | 8.4337e-06 2.309e-08 | d yr |
n | .2554552507062692 | 1.5288e-09 | deg/d |
Q | 2.922260516506525 | 1.1659e-08 | au |
|
| | Orbit Determination Parameters
Additional Information
|